Jacksonville, FL

11:54 AM EST on February 27, 2017 (GMT -0500)
Cecil

Weather History for KVQQ - May, 2014

Change the Weather History Date:

Sunday, May 11, 2014

  Actual Average (KNIP) Record (KNIP)
Temperature  
Mean Temperature 75 °F -  
Max Temperature 84 °F 83 °F 96 °F (2003)
Min Temperature 66 °F 65 °F 59 °F (2001)
Cooling Degree Days 10    
Growing Degree Days 25 (Base 50)    
Moisture  
Dew Point 68 °F    
Average Humidity 94    
Maximum Humidity 100    
Minimum Humidity 66    
Precipitation  
Precipitation 0.00 in - - ()
Sea Level Pressure  
Sea Level Pressure 30.12 in    
Wind  
Wind Speed 1 mph (South)    
Max Wind Speed 17 mph    
Max Gust Speed -    
Visibility 6 miles    
Events Rain    
Averages and records for this station are not official NWS values.
T = Trace of Precipitation, MM = Missing Value Source: NWS Daily Summary

Daily Weather History Graph

Daily Weather History Graph

Search for Another Location

Airport or City:

Trip Planner

Search our weather history database for the weather conditions in past years. The results will help you decide how hot, cold, wet, or windy it might be!

Date:

Astronomy

May. 11, 2014 Rise Set
Actual Time 6:36 AM EDT 8:11 PM EDT
Civil Twilight 6:10 AM EDT 8:37 PM EDT
Nautical Twilight 5:39 AM EDT 9:09 PM EDT
Astronomical Twilight 5:06 AM EDT 9:41 PM EDT
Moon 5:19 PM EDT (5/11) 4:25 AM EDT (5/11)
Length of Visible Light 14h 27m
Length of Day
13h 35m
Waxing Gibbous, 89% of the Moon is Illuminated
May 11
Waxing Gibbous
May 14
Full
May 21
Last Quarter
May 28
New
Jun 5
First Quarter

Hourly Weather History & Observations

Time (EDT) Temp. Heat Index Dew Point Humidity Pressure Visibility Wind Dir Wind Speed Gust Speed Precip Events Conditions
12:15 AM 71.6 °F - 68.0 °F 88% 30.12 in 10.0 mi Calm Calm - N/A   Clear
12:35 AM 71.6 °F - 68.0 °F 88% 30.12 in 9.0 mi Calm Calm - N/A   Clear
12:55 AM 69.8 °F - 68.0 °F 94% 30.12 in 8.0 mi Calm Calm - N/A   Clear
1:15 AM 69.8 °F - 68.0 °F 94% 30.12 in 8.0 mi Calm Calm - N/A   Clear
1:35 AM 68.0 °F - 68.0 °F 100% 30.11 in 7.0 mi Calm Calm - N/A   Clear
1:55 AM 68.0 °F - 68.0 °F 100% 30.11 in 7.0 mi Calm Calm - N/A   Clear
2:15 AM 68.0 °F - 68.0 °F 100% 30.11 in 7.0 mi Calm Calm - N/A   Scattered Clouds
2:35 AM 68.0 °F - 68.0 °F 100% 30.10 in 7.0 mi Calm Calm - N/A   Partly Cloudy
2:55 AM 68.0 °F - 68.0 °F 100% 30.09 in 6.0 mi Calm Calm - N/A   Clear
3:15 AM 68.0 °F - 68.0 °F 100% 30.09 in 7.0 mi Calm Calm - N/A   Clear
3:35 AM 68.0 °F - 68.0 °F 100% 30.09 in 8.0 mi Calm Calm - N/A   Clear
3:55 AM 68.0 °F - 68.0 °F 100% 30.09 in 7.0 mi Calm Calm - N/A   Clear
4:15 AM 68.0 °F - 66.2 °F 94% 30.09 in 5.0 mi Calm Calm - N/A   Clear
4:35 AM 68.0 °F - 66.2 °F 94% 30.09 in 4.0 mi Calm Calm - N/A   Clear
5:15 AM 68.0 °F - 68.0 °F 100% 30.10 in 6.0 mi Calm Calm - N/A   Clear
5:35 AM 68.0 °F - 68.0 °F 100% 30.10 in 7.0 mi Calm Calm - N/A   Clear
5:55 AM 68.0 °F - 68.0 °F 100% 30.10 in 5.0 mi Calm Calm - N/A   Clear
6:15 AM 68.0 °F - 68.0 °F 100% 30.11 in 6.0 mi Calm Calm - N/A   Clear
6:35 AM 68.0 °F - 68.0 °F 100% 30.11 in 5.0 mi Calm Calm - N/A   Clear
6:50 AM 68.0 °F - 68.0 °F 100% 30.12 in 7.0 mi Calm Calm - N/A   Clear
8:50 AM 73.4 °F - 71.6 °F 94% 30.15 in 7.0 mi SSE 3.5 mph - N/A   Clear
9:50 AM 77.0 °F - 71.6 °F 83% 30.16 in 7.0 mi South 8.1 mph - N/A   Clear
10:50 AM 80.6 °F 84.6 °F 71.6 °F 74% 30.16 in 7.0 mi SSE 5.8 mph - N/A   Scattered Clouds
11:50 AM 82.4 °F 87.2 °F 71.6 °F 70% 30.16 in 7.0 mi South 5.8 mph - N/A   Mostly Cloudy
12:50 PM 84.2 °F 89.6 °F 71.6 °F 66% 30.15 in 7.0 mi SSW 3.5 mph - N/A   Mostly Cloudy
2:50 PM 82.4 °F 87.2 °F 71.6 °F 70% 30.12 in 7.0 mi Variable 5.8 mph - N/A   Mostly Cloudy
3:50 PM 78.8 °F - 71.6 °F 78% 30.10 in 7.0 mi SSW 17.3 mph - N/A   Mostly Cloudy
4:50 PM 68.0 °F - 64.4 °F 88% 30.11 in 5.0 mi West 9.2 mph - N/A Rain Light Rain
5:50 PM 68.0 °F - 66.2 °F 94% 30.15 in 2.0 mi East 4.6 mph - N/A Rain Light Rain
7:50 PM 68.0 °F - 66.2 °F 94% 30.11 in 7.0 mi Calm Calm - N/A   Clear
8:15 PM 68.0 °F - 66.2 °F 94% 30.11 in 10.0 mi Calm Calm - N/A   Clear
8:35 PM 68.0 °F - 66.2 °F 94% 30.11 in 6.0 mi Calm Calm - N/A   Clear
8:55 PM 68.0 °F - 66.2 °F 94% 30.12 in 6.0 mi Calm Calm - N/A   Clear
9:15 PM 68.0 °F - 66.2 °F 94% 30.13 in 5.0 mi Calm Calm - N/A   Clear
9:35 PM 68.0 °F - 66.2 °F 94% 30.14 in 8.0 mi Calm Calm - N/A   Clear
9:55 PM 66.2 °F - 66.2 °F 100% 30.14 in 10.0 mi Calm Calm - N/A   Clear
10:15 PM 66.2 °F - 66.2 °F 100% 30.15 in 5.0 mi Calm Calm - N/A   Clear
10:35 PM 66.2 °F - 66.2 °F 100% 30.15 in 4.0 mi Calm Calm - N/A   Clear
10:55 PM 66.2 °F - 66.2 °F 100% 30.15 in 4.0 mi Calm Calm - N/A   Clear
11:15 PM 66.2 °F - 66.2 °F 100% 30.16 in 3.0 mi Calm Calm - N/A   Clear
11:35 PM 66.2 °F - 66.2 °F 100% 30.16 in 3.0 mi Calm Calm - N/A   Clear
11:55 PM 66.2 °F - 64.4 °F 94% 30.15 in 1.0 mi Calm Calm - N/A   Clear